Regional Weather Roundup
Issued by NWS

Home | Current Version | Previous Version | Graphics & Text | Print | Product List | Glossary On
Versions: 1 2 3 4 5 6 7 8 9 10 11 12 13 14 15 16 17 18 19 20 21 22 23 24 25 26 27 28 29 30 31 32 33 34 35 36 37 38 39 40 41 42 43 44 45 46 47 48 49 50
714
ASUS43 KOAX 310502
RWRNE

WEATHER ROUNDUP FOR NEBRASKA
NATIONAL WEATHER SERVICE OMAHA NE
1200 AM CDT SUN JUL 31 2016

NOTES: SATELLITE DATA IS BEING USED TO AUGMENT CLOUD COVER ABOVE
       12000 FEET.
       "FAIR" INDICATES FEW OR NO CLOUDS BELOW 12,000 FEET WITH NO
       SIGNIFICANT WEATHER AND/OR OBSTRUCTIONS TO VISIBILITY.

  * THESE STATIONS DO NOT REPORT WEATHER SUCH AS RAIN...SNOW OR FOG.

NEZ001>004-019>022-054>056-310600-
NEBRASKA PANHANDLE

CITY           SKY/WX    TMP DP  RH WIND       PRES   REMARKS
SCOTTSBLUFF    PTCLDY    71  62  73 E8        29.91F
ALLIANCE       CLOUDY    68  62  81 SE9       29.91S
CHADRON        TSTM      65  59  81 E18       29.92F
KIMBALL        CLOUDY    74  53  47 S12G29    29.95F
SIDNEY         CLOUDY    72  62  71 S12       29.97F
$$

NEZ057>060-069>072-079>082-310600-
SOUTHWEST NEBRASKA

CITY           SKY/WX    TMP DP  RH WIND       PRES   REMARKS
NORTH PLATTE   CLEAR     73  67  81 SE12      29.92F
IMPERIAL       CLEAR     74  64  71 SE15      29.92F
LEXINGTON      CLEAR     72  68  86 SE10      29.93F
MCCOOK         CLEAR     74  67  78 E9        29.91F
OGALLALA       CLEAR     75  63  65 SE13      29.92R
$$

NEZ005>010-023>029-035>040-094-310600-
NORTH CENTRAL NEBRASKA

CITY           SKY/WX    TMP DP  RH WIND       PRES   REMARKS
VALENTINE      PTCLDY    75  67  76 S14       29.89R
AINSWORTH      CLOUDY    74  70  88 SE10G17   29.92R
BROKEN BOW     PTCLDY    70  69  97 SE10      29.94F
O`NEILL        PTCLDY    71  67  89 SE12      29.93S
ORD            MOCLDY    72  66  81 SE10      29.92F
THEDFORD       CLOUDY    73  68  83 SE10      29.93R
$$

NEZ041-046>049-061>064-073>077-083>087-310600-
SOUTH CENTRAL NEBRASKA

CITY           SKY/WX    TMP DP  RH WIND       PRES   REMARKS
GRAND ISLAND   CLOUDY    71  67  87 SE14      29.95F
AURORA         CLEAR     69  68  96 SE8       29.96S
HASTINGS       CLEAR     71  66  84 SE12      29.95F
HEBRON         PTCLDY    72  68  88 SE7       29.96S
HOLDREGE       CLEAR     71  67  89 SE10      29.93F
KEARNEY *      CLEAR     70  66  88 SE8       29.95S
YORK           CLEAR     70  68  94 SE10      29.96F
$$

NEZ011>018-030>034-042>045-310600-
NORTHEAST NEBRASKA

CITY           SKY/WX    TMP DP  RH WIND       PRES   REMARKS
NORFOLK        CLOUDY    69  64  84 SE9       29.95F
ALBION         CLOUDY    69  66  89 SE7       29.96S
BLAIR          CLOUDY    71  65  79 S6        29.98S
FREMONT        MOCLDY    72  64  77 SE7       29.97F
TEKAMAH        PTCLDY    67  64  90 S6        29.96S
WAYNE          PTCLDY    68  66  92 S6        29.96F
$$

NEZ050>053-065>068-078-088>093-310600-
SOUTHEAST NEBRASKA

CITY           SKY/WX    TMP DP  RH WIND       PRES   REMARKS
LINCOLN        CLEAR     73  67  81 SE6       29.97S
OMAHA EPPLEY   PTCLDY    73  64  73 S8        29.97S
BEATRICE       CLEAR     71  68  90 SE7       29.97S
FALLS CITY     CLEAR     69  67  93 SE3       29.97F
NEBRASKA CITY  CLEAR     70  68  94 SE7       29.99S
PLATTSMOUTH    CLEAR     69  66  90 SE5       29.98F
$$

NEZ044-045-051>053-067-310600-
OMAHA AREA

CITY           SKY/WX    TMP DP  RH WIND       PRES   REMARKS
OMAHA EPPLEY   PTCLDY    73  64  73 S8        29.97S
BLAIR          CLOUDY    71  65  79 S6        29.98S
FREMONT        MOCLDY    72  64  77 SE7       29.97F
MILLARD        CLEAR     71  66  84 SE3       29.97S
OFFUTT AFB     CLEAR     69  66  92 E6        29.97S
PLATTSMOUTH    CLEAR     69  66  90 SE5       29.98F
WAHOO          CLOUDY    69  67  92 SE5       29.97S
$$




USA.gov is the U.S. government's official web portal to all federal, state and local government web resources and services.